Location: Caltech
(34.1382°N, 118.1253°W)
Time: 19:19:57
(UTC-07:00)

Aureole 2 Rocket - Visible Passes

Search period start: 26 May 2016 00:00
Search period end: 05 June 2016 00:00
Orbit: 335 x 616 km, 73.9° (Epoch: 26 May)

Date Brightness Start Highest point End Pass type
(mag) Time Alt. Az. Time Alt. Az. Time Alt. Az.
26 May 3.6 20:21:47 10° SSE 20:25:17 29° ESE 20:28:35 10° NE visible
26 May 5.7 21:58:40 10° WSW 22:01:03 15° WNW 22:03:21 10° NNW visible
27 May 5.2 21:29:52 10° WSW 21:33:04 23° WNW 21:36:03 10° NNW visible
28 May 4.4 21:01:25 10° SW 21:05:05 36° WNW 21:08:28 10° N visible
29 May 3.3 20:33:13 10° SSW 20:37:07 59° WNW 20:40:40 10° N visible
01 Jun 6.1 20:47:03 10° W 20:48:55 13° WNW 20:50:42 10° NW visible
